Weather History for Grand Canyon, AZ

Change the Weather History Date:

Saturday, October 6, 2012

  Actual Average Record
Temperature  
Mean Temperature 51 °F -  
Max Temperature 72 °F 67 °F 82 °F (1979)
Min Temperature 30 °F 31 °F 19 °F (2013)
Degree Days  
Heating Degree Days 14    
Growing Degree Days 1 (Base 50)    
Moisture  
Dew Point 22 °F    
Average Humidity 36    
Maximum Humidity 64    
Minimum Humidity 17    
Precipitation  
Precipitation 0.00 in - - ()
Sea Level Pressure  
Sea Level Pressure 29.97 in    
Wind  
Wind Speed 2 mph (WNW)    
Max Wind Speed 10 mph    
Max Gust Speed 17 mph    
Visibility 10 miles    
Events      
Averages and records for this station are not official NWS values.
T = Trace of Precipitation, MM = Missing Value Source: NWS Daily Summary

Daily Weather History Graph

Daily Weather History Graph

Search for Another Location

Airport:

Trip Planner

Search our weather history database for the weather conditions in past years. The results will help you decide how hot, cold, wet, or windy it might be!

Date:

Astronomy

Oct. 06, 2012 Rise Set
Actual Time 6:28 AM MST 6:04 PM MST
Civil Twilight 6:02 AM MST 6:29 PM MST
Nautical Twilight 5:32 AM MST 6:59 PM MST
Astronomical Twilight 5:03 AM MST 7:29 PM MST
Moon 10:31 PM MST (10/6) 12:16 PM MST (10/6)
Length of Visible Light 12h 27m
Length of Day
11h 36m
Waning Gibbous, 64% of the Moon is Illuminated
Oct 6
Waning Gibbous
Oct 8
Last Quarter
Oct 15
New
Oct 21
First Quarter
Oct 29
Full

Hourly Weather History & Observations

Time (MST) Temp. Windchill Dew Point Humidity Pressure Visibility Wind Dir Wind Speed Gust Speed Precip Events Conditions
12:54 AM 45.0 °F - 23.0 °F 42% 29.98 in 10.0 mi Calm Calm - N/A   Clear
1:54 AM 44.1 °F - 24.1 °F 45% 29.97 in 10.0 mi Calm Calm - N/A   Clear
2:54 AM 43.0 °F - 23.0 °F 45% 29.96 in 10.0 mi Calm Calm - N/A   Clear
3:54 AM 37.9 °F 35.5 °F 21.9 °F 53% 29.98 in 10.0 mi East 3.5 mph - N/A   Clear
4:54 AM 35.1 °F - 21.0 °F 57% 30.00 in 10.0 mi Calm Calm - N/A   Clear
5:54 AM 30.9 °F - 19.9 °F 64% 30.03 in 10.0 mi Calm Calm - N/A   Clear
6:54 AM 34.0 °F - 21.0 °F 59% 30.04 in 10.0 mi Calm Calm - N/A   Clear
7:54 AM 42.1 °F - 24.1 °F 49% 30.05 in 10.0 mi Calm Calm - N/A   Clear
8:54 AM 57.0 °F - 28.9 °F 34% 30.01 in 10.0 mi Calm Calm - N/A   Clear
9:54 AM 61.0 °F - 26.1 °F 26% 30.00 in 10.0 mi SSW 4.6 mph - N/A   Clear
10:54 AM 66.0 °F - 25.0 °F 21% 29.96 in 10.0 mi Variable 3.5 mph - N/A   Clear
11:54 AM 70.0 °F - 24.1 °F 18% 29.94 in 10.0 mi WNW 6.9 mph - N/A   Clear
12:54 PM 69.1 °F - 21.9 °F 17% 29.93 in 10.0 mi Calm Calm - N/A   Clear
1:54 PM 69.1 °F - 21.9 °F 17% 29.91 in 10.0 mi Variable 6.9 mph 17.3 mph N/A   Clear
2:54 PM 69.1 °F - 24.1 °F 18% 29.90 in 10.0 mi North 9.2 mph - N/A   Clear
3:54 PM 72.0 °F - 24.1 °F 17% 29.89 in 10.0 mi Variable 3.5 mph - N/A   Clear
4:54 PM 69.1 °F - 24.1 °F 18% 29.91 in 10.0 mi West 10.4 mph - N/A   Clear
5:54 PM 64.9 °F - 23.0 °F 20% 29.95 in 10.0 mi Variable 3.5 mph - N/A   Clear
6:54 PM 50.0 °F - 19.9 °F 31% 30.01 in 10.0 mi Calm Calm - N/A   Clear
7:54 PM 43.0 °F - 19.0 °F 38% 30.01 in 10.0 mi Calm Calm - N/A   Clear
8:54 PM 42.1 °F - 19.9 °F 41% 29.96 in 10.0 mi Calm Calm - N/A   Clear
9:54 PM 41.0 °F - 19.9 °F 43% 29.96 in 10.0 mi Calm Calm - N/A   Clear
10:54 PM 35.1 °F - 16.0 °F 46% 29.97 in 10.0 mi Calm Calm - N/A   Clear